Location: Central Coast
(33.3208°S, 151.2336°E)
Time: 18:56:15
(UTC+11:00)

Tiangong 1 - Pass Details

Date: 10 October 2017
Orbit: 294 x 321 km, 42.8° (Epoch: 17 October)

Event Time Altitude Azimuth Distance (km) Brightness Sun altitude
Exits shadow 04:49:35 50° 87° (E) 396 1.4 -19.2°
Drops below altitude 10° 04:51:46 10° 115° (ESE) 1,193 4.8 -18.8°
Sets 04:53:46 0° 117° (ESE) 2,031 6.4 -18.4°
